Lanai City, HI

6:49 PM HST on February 10, 2016 (GMT -1000)
Lanai City

Weather History for PHNY - February, 2013

Change the Weather History Date:

Sunday, February 24, 2013

  Actual Average Record
Temperature  
Mean Temperature 70 °F -  
Max Temperature 77 °F 77 °F 82 °F (2001)
Min Temperature 64 °F 60 °F 56 °F (1993)
Cooling Degree Days 6    
Growing Degree Days 20 (Base 50)    
Moisture  
Dew Point 59 °F    
Average Humidity 71    
Maximum Humidity 88    
Minimum Humidity 57    
Precipitation  
Precipitation 0.00 in - - ()
Sea Level Pressure  
Sea Level Pressure 30.08 in    
Wind  
Wind Speed 18 mph (NE)    
Max Wind Speed 29 mph    
Max Gust Speed 37 mph    
Visibility 10 miles    
Events      
Averages and records for this station are not official NWS values.
T = Trace of Precipitation, MM = Missing Value Source: NWS Daily Summary

Daily Weather History Graph

Daily Weather History Graph

Search for Another Location

Airport or City:

Trip Planner

Search our weather history database for the weather conditions in past years. The results will help you decide how hot, cold, wet, or windy it might be!

Date:

Astronomy

Feb. 24, 2013 Rise Set
Actual Time 6:51 AM HST 6:30 PM HST
Civil Twilight 6:29 AM HST 6:52 PM HST
Nautical Twilight 6:03 AM HST 7:18 PM HST
Astronomical Twilight 5:37 AM HST 7:44 PM HST
Moon 5:51 PM HST (2/24) 5:53 AM HST (2/24)
Length of Visible Light 12h 23m
Length of Day
11h 39m
Waxing Gibbous, 99% of the Moon is Illuminated
Feb 24
Waxing Gibbous
Feb 25
Full
Mar 4
Last Quarter
Mar 11
New
Mar 19
First Quarter

Hourly Weather History & Observations

Time (HST) Temp. Dew Point Humidity Pressure Visibility Wind Dir Wind Speed Gust Speed Precip Events Conditions
12:56 AM 64.9 °F 59.9 °F 84% 30.09 in - NE 13.8 mph - N/A   Clear
1:56 AM 64.9 °F 59.9 °F 84% 30.07 in - East 18.4 mph 26.5 mph N/A   Clear
2:29 AM 64.4 °F 60.8 °F 88% 30.11 in - East 10.4 mph 20.7 mph N/A   Mostly Cloudy
2:56 AM 64.9 °F 59.0 °F 81% 30.05 in - East 16.1 mph - N/A   Mostly Cloudy
3:56 AM 64.9 °F 59.0 °F 81% 30.04 in - NE 21.9 mph 25.3 mph N/A   Mostly Cloudy
4:06 AM 64.4 °F 59.0 °F 83% 30.09 in - ENE 17.3 mph 23.0 mph N/A   Clear
4:56 AM 64.9 °F 57.9 °F 78% 30.04 in - East 13.8 mph 26.5 mph N/A   Clear
5:56 AM 64.9 °F 57.9 °F 78% 30.04 in - NE 23.0 mph 31.1 mph N/A   Clear
6:56 AM 64.9 °F 57.9 °F 78% 30.06 in - NE 16.1 mph 25.3 mph N/A   Clear
7:56 AM 66.9 °F 57.9 °F 73% 30.08 in - NE 21.9 mph 29.9 mph N/A   Clear
8:45 AM 66.2 °F 57.2 °F 73% 30.12 in 10.0 mi NE 21.9 mph 29.9 mph N/A   Clear
8:56 AM 70.0 °F 59.9 °F 70% 30.09 in - ENE 24.2 mph 27.6 mph N/A   Clear
9:45 AM 69.8 °F 60.8 °F 73% 30.13 in 10.0 mi ENE 24.2 mph 27.6 mph N/A   Clear
9:56 AM 72.9 °F 61.0 °F 66% 30.10 in - NE 21.9 mph - N/A   Clear
10:45 AM 75.2 °F 62.6 °F 65% 30.14 in 10.0 mi NE 16.1 mph 23.0 mph N/A   Mostly Cloudy
10:46 AM 75.2 °F 60.8 °F 61% 30.14 in - NE 18.4 mph 23.0 mph N/A   Mostly Cloudy
10:56 AM 74.8 °F 59.0 °F 58% 30.10 in - NE 17.3 mph 24.2 mph N/A   Mostly Cloudy
11:45 AM 75.2 °F 59.0 °F 57% 30.15 in 10.0 mi NE 17.3 mph 24.2 mph N/A   Mostly Cloudy
11:56 AM 75.9 °F 59.9 °F 57% 30.07 in - ENE 18.4 mph 24.2 mph N/A   Mostly Cloudy
12:16 PM 75.2 °F 60.8 °F 61% 30.12 in - NNE 20.7 mph - N/A   Mostly Cloudy
12:27 PM 75.2 °F 60.8 °F 61% 30.11 in - NE 17.3 mph - N/A   Mostly Cloudy
12:45 PM 75.2 °F 60.8 °F 61% 30.11 in 10.0 mi NE 17.3 mph - N/A   Mostly Cloudy
12:56 PM 74.8 °F 59.9 °F 60% 30.05 in - NE 16.1 mph - N/A   Mostly Cloudy
1:45 PM 75.2 °F 60.8 °F 61% 30.10 in 10.0 mi NE 16.1 mph - N/A   Mostly Cloudy
1:56 PM 75.9 °F 61.0 °F 60% 30.02 in - NNE 20.7 mph 28.8 mph N/A   Mostly Cloudy
2:56 PM 77.0 °F 61.0 °F 58% 29.99 in - NE 23.0 mph 28.8 mph N/A   Clear
3:56 PM 74.8 °F 61.0 °F 62% 30.00 in - NNE 20.7 mph 26.5 mph N/A   Mostly Cloudy
4:56 PM 73.4 °F 62.6 °F 69% 30.06 in - NE 19.6 mph - N/A   Clear
5:56 PM 68.9 °F 59.9 °F 73% 30.03 in - NE 26.5 mph 33.4 mph N/A   Clear
6:56 PM 65.8 °F 59.0 °F 79% 30.06 in - NE 25.3 mph 32.2 mph N/A   Clear
7:56 PM 65.8 °F 57.9 °F 76% 30.07 in - NE 25.3 mph 32.2 mph N/A   Clear
8:56 PM 64.9 °F 56.8 °F 75% 30.09 in - ENE 17.3 mph 36.8 mph N/A   Clear
9:56 PM 64.9 °F 57.9 °F 78% 30.09 in - NE 23.0 mph 36.8 mph N/A   Clear
10:56 PM 64.9 °F 57.9 °F 78% 30.10 in - NE 23.0 mph 31.1 mph N/A   Clear
11:13 PM 64.4 °F 57.2 °F 77% 30.16 in - East 9.2 mph - N/A   Mostly Cloudy
11:42 PM 64.4 °F 57.2 °F 77% 30.13 in - NE 28.8 mph 35.7 mph N/A   Clear
11:56 PM 64.9 °F 57.9 °F 78% 30.09 in - NE 24.2 mph 33.4 mph N/A   Clear